| time (UTC) | temp F | wind direction | speed MPH | gust MPH | rain 1hr in | rain 24hr in | rain mn in | humidity % | barometer mb |
| 20260503210508 | 71 | 223 | 17.0 | 23.0 | 0.00 | 0.00 | 0.00 | 20 | 965.5 |
| 20260503210008 | 72 | 241 | 16.0 | 31.0 | 0.00 | 0.00 | 0.00 | 18 | 965.7 |
| 20260503205506 | 72 | 222 | 18.0 | 26.0 | 0.00 | 0.00 | 0.00 | 19 | 965.7 |
| 20260503205006 | 72 | 237 | 19.0 | 26.0 | 0.00 | 0.00 | 0.00 | 19 | 966.0 |
| 20260503204505 | 71 | 246 | 18.0 | 24.0 | 0.00 | 0.00 | 0.00 | 18 | 966.0 |
| 20260503204003 | 70 | 221 | 14.0 | 21.0 | 0.00 | 0.00 | 0.00 | 19 | 966.2 |
| 20260503203503 | 70 | 228 | 15.0 | 24.0 | 0.00 | 0.00 | 0.00 | 21 | 966.4 |
| 20260503203002 | 70 | 236 | 14.0 | 24.0 | 0.00 | 0.00 | 0.00 | 21 | 966.4 |
| 20260503202502 | 70 | 246 | 13.0 | 21.0 | 0.00 | 0.00 | 0.00 | 19 | 966.5 |
| 20260503202002 | 70 | 248 | 12.0 | 26.0 | 0.00 | 0.00 | 0.00 | 20 | 966.5 |
| 20260503201602 | 70 | 247 | 14.0 | 26.0 | 0.00 | 0.00 | 0.00 | 20 | 966.5 |
| 20260503201103 | 70 | 251 | 18.0 | 25.0 | 0.00 | 0.00 | 0.00 | 19 | 966.7 |
| 20260503200559 | 70 | 233 | 11.0 | 21.0 | 0.00 | 0.00 | 0.00 | 18 | 966.7 |
| 20260503200058 | 70 | 222 | 13.0 | 28.0 | 0.00 | 0.00 | 0.00 | 19 | 966.9 |
| 20260503195557 | 70 | 238 | 21.0 | 28.0 | 0.00 | 0.00 | 0.00 | 19 | 967.3 |
| 20260503195056 | 70 | 238 | 16.0 | 24.0 | 0.00 | 0.00 | 0.00 | 19 | 967.5 |
| 20260503194601 | 70 | 220 | 14.0 | 24.0 | 0.00 | 0.00 | 0.00 | 20 | 967.6 |
| 20260503194054 | 71 | 360 | 15.0 | 30.0 | 0.00 | 0.00 | 0.00 | 19 | 967.8 |
| 20260503193554 | 71 | 234 | 17.0 | 30.0 | 0.00 | 0.00 | 0.00 | 20 | 968.1 |
| 20260503193053 | 71 | 233 | 18.0 | 25.0 | 0.00 | 0.00 | 0.00 | 19 | 968.3 |
| 20260503192552 | 71 | 242 | 13.0 | 25.0 | 0.00 | 0.00 | 0.00 | 20 | 968.4 |
| 20260503192051 | 70 | 231 | 18.0 | 29.0 | 0.00 | 0.00 | 0.00 | 20 | 968.6 |
| 20260503191550 | 70 | 236 | 18.0 | 29.0 | 0.00 | 0.00 | 0.00 | 21 | 968.8 |
| 20260503191049 | 70 | 246 | 16.0 | 27.0 | 0.00 | 0.00 | 0.00 | 20 | 968.9 |
| 20260503190547 | 70 | 238 | 15.0 | 26.0 | 0.00 | 0.00 | 0.00 | 19 | 969.0 |
| 20260503190047 | 70 | 360 | 16.0 | 27.0 | 0.00 | 0.00 | 0.00 | 21 | 969.3 |
| 20260503185545 | 70 | 217 | 19.0 | 28.0 | 0.00 | 0.00 | 0.00 | 22 | 969.6 |
| 20260503185047 | 69 | 255 | 17.0 | 25.0 | 0.00 | 0.00 | 0.00 | 21 | 969.7 |
| 20260503184601 | 69 | 249 | 14.0 | 25.0 | 0.00 | 0.00 | 0.00 | 23 | 970.0 |
| 20260503184043 | 68 | 230 | 13.0 | 22.0 | 0.00 | 0.00 | 0.00 | 23 | 970.2 |
| 20260503183542 | 68 | 244 | 12.0 | 24.0 | 0.00 | 0.00 | 0.00 | 23 | 970.3 |
| 20260503183048 | 68 | 215 | 16.0 | 23.0 | 0.00 | 0.00 | 0.00 | 23 | 970.4 |
| 20260503182541 | 68 | 245 | 13.0 | 22.0 | 0.00 | 0.00 | 0.00 | 24 | 970.5 |
| 20260503182040 | 69 | 203 | 12.0 | 26.0 | 0.00 | 0.00 | 0.00 | 24 | 970.7 |
| 20260503181540 | 68 | 237 | 13.0 | 26.0 | 0.00 | 0.00 | 0.00 | 23 | 970.8 |
| 20260503181038 | 69 | 250 | 20.0 | 26.0 | 0.00 | 0.00 | 0.00 | 23 | 971.1 |
| 20260503180536 | 68 | 225 | 15.0 | 23.0 | 0.00 | 0.00 | 0.00 | 25 | 971.2 |
| 20260503180037 | 68 | 257 | 13.0 | 25.0 | 0.00 | 0.00 | 0.00 | 23 | 971.4 |
| 20260503175534 | 68 | 215 | 17.0 | 24.0 | 0.00 | 0.00 | 0.00 | 25 | 971.5 |
| 20260503175037 | 68 | 240 | 13.0 | 23.0 | 0.00 | 0.00 | 0.00 | 26 | 971.5 |
| 20260503174534 | 67 | 276 | 15.0 | 23.0 | 0.00 | 0.00 | 0.00 | 25 | 971.7 |
| 20260503174034 | 67 | 232 | 11.0 | 22.0 | 0.00 | 0.00 | 0.00 | 24 | 971.8 |
| 20260503173534 | 67 | 233 | 13.0 | 23.0 | 0.00 | 0.00 | 0.00 | 25 | 972.1 |
| 20260503173035 | 68 | 230 | 13.0 | 23.0 | 0.00 | 0.00 | 0.00 | 26 | 972.3 |
| 20260503172532 | 68 | 229 | 14.0 | 23.0 | 0.00 | 0.00 | 0.00 | 26 | 972.2 |
| 20260503172029 | 67 | 243 | 8.0 | 20.0 | 0.00 | 0.00 | 0.00 | 27 | 972.3 |
| 20260503171531 | 67 | 221 | 13.0 | 20.0 | 0.00 | 0.00 | 0.00 | 25 | 972.5 |
| 20260503171026 | 67 | 213 | 10.0 | 17.0 | 0.00 | 0.00 | 0.00 | 25 | 972.7 |
| 20260503170525 | 66 | 222 | 11.0 | 20.0 | 0.00 | 0.00 | 0.00 | 28 | 972.8 |
| 20260503150552 | 57 | 268 | 10.0 | 16.0 | 0.00 | 0.00 | 0.00 | 38 | 976.3 |
| 20260503131025 | 46 | 360 | 6.0 | 11.0 | 0.00 | 0.00 | 0.00 | 48 | 978.3 |
| 20260503130522 | 46 | 232 | 5.0 | 10.0 | 0.00 | 0.00 | 0.00 | 49 | 978.2 |
| 20260503110503 | 35 | 229 | 4.0 | 6.0 | 0.00 | 0.00 | 0.00 | 55 | 979.1 |
| 20260503081544 | 37 | 228 | 4.0 | 7.0 | 0.00 | 0.00 | 0.00 | 51 | 980.1 |
| 20260503081043 | 37 | 234 | 4.0 | 7.0 | 0.00 | 0.00 | 0.00 | 52 | 980.2 |
| 20260503080544 | 37 | 232 | 3.0 | 5.0 | 0.00 | 0.00 | 0.00 | 52 | 980.1 |
| 20260503072540 | 39 | 264 | 2.0 | 5.0 | 0.00 | 0.00 | 0.00 | 47 | 980.3 |
| 20260503072042 | 39 | 360 | 3.0 | 5.0 | 0.00 | 0.00 | 0.00 | 47 | 980.3 |
| 20260503071557 | 39 | 265 | 3.0 | 5.0 | 0.00 | 0.00 | 0.00 | 48 | 980.3 |
| 20260503071038 | 39 | 360 | 3.0 | 5.0 | 0.00 | 0.00 | 0.00 | 49 | 980.4 |
| 20260503070537 | 38 | 360 | 3.0 | 5.0 | 0.00 | 0.00 | 0.00 | 50 | 980.4 |
| 20260503055030 | 40 | 269 | 4.0 | 7.0 | 0.00 | 0.00 | 0.00 | 48 | 980.7 |
| 20260503054529 | 40 | 281 | 2.0 | 5.0 | 0.00 | 0.00 | 0.00 | 48 | 980.7 |
| 20260503054028 | 40 | 273 | 3.0 | 5.0 | 0.00 | 0.00 | 0.00 | 48 | 980.6 |
| 20260503053528 | 40 | 285 | 2.0 | 4.0 | 0.00 | 0.00 | 0.00 | 48 | 980.6 |
| 20260503053034 | 40 | 276 | 2.0 | 4.0 | 0.00 | 0.00 | 0.00 | 47 | 980.6 |
| 20260503052526 | 40 | 282 | 2.0 | 5.0 | 0.00 | 0.00 | 0.00 | 47 | 980.6 |
| 20260503052028 | 41 | 285 | 3.0 | 6.0 | 0.00 | 0.00 | 0.00 | 46 | 980.6 |
| 20260503051529 | 41 | 299 | 3.0 | 7.0 | 0.00 | 0.00 | 0.00 | 46 | 980.7 |
| 20260503051025 | 41 | 284 | 3.0 | 9.0 | 0.00 | 0.00 | 0.00 | 46 | 980.6 |
| 20260503050523 | 40 | 286 | 6.0 | 9.0 | 0.00 | 0.00 | 0.00 | 47 | 980.7 |
| 20260503050022 | 40 | 281 | 5.0 | 8.0 | 0.00 | 0.00 | 0.00 | 47 | 980.6 |
| 20260503045522 | 40 | 277 | 3.0 | 8.0 | 0.00 | 0.00 | 0.00 | 48 | 980.6 |
| 20260503045022 | 41 | 280 | 4.0 | 8.0 | 0.00 | 0.00 | 0.00 | 47 | 980.6 |
| 20260503044541 | 41 | 303 | 4.0 | 6.0 | 0.00 | 0.00 | 0.00 | 47 | 980.6 |
| 20260503044023 | 41 | 292 | 4.0 | 7.0 | 0.00 | 0.00 | 0.00 | 47 | 980.6 |
| 20260503043521 | 41 | 286 | 4.0 | 9.0 | 0.00 | 0.00 | 0.00 | 47 | 980.6 |
| 20260503043038 | 41 | 306 | 4.0 | 9.0 | 0.00 | 0.00 | 0.00 | 46 | 980.5 |
| 20260503042521 | 42 | 289 | 3.0 | 8.0 | 0.00 | 0.00 | 0.00 | 46 | 980.5 |
| 20260503042021 | 42 | 296 | 4.0 | 8.0 | 0.00 | 0.00 | 0.00 | 46 | 980.6 |
| 20260503041521 | 43 | 360 | 2.0 | 4.0 | 0.00 | 0.00 | 0.00 | 44 | 980.5 |
| 20260503041021 | 43 | 327 | 2.0 | 8.0 | 0.00 | 0.00 | 0.00 | 44 | 980.5 |
| 20260503040523 | 43 | 360 | 4.0 | 8.0 | 0.00 | 0.00 | 0.00 | 43 | 980.6 |
| 20260503040020 | 44 | 360 | 3.0 | 6.0 | 0.00 | 0.00 | 0.00 | 43 | 980.7 |
| 20260503035519 | 44 | 331 | 2.0 | 8.0 | 0.00 | 0.00 | 0.00 | 42 | 980.7 |
| 20260503035019 | 45 | 360 | 4.0 | 11.0 | 0.00 | 0.00 | 0.00 | 41 | 980.6 |
| 20260503034520 | 45 | 339 | 5.0 | 11.0 | 0.00 | 0.00 | 0.00 | 41 | 980.7 |
| 20260503034020 | 45 | 306 | 4.0 | 9.0 | 0.00 | 0.00 | 0.00 | 40 | 980.7 |
| 20260503033522 | 46 | 360 | 4.0 | 9.0 | 0.00 | 0.00 | 0.00 | 40 | 980.8 |
| 20260503033021 | 46 | 331 | 5.0 | 9.0 | 0.00 | 0.00 | 0.00 | 39 | 980.8 |
| 20260503032520 | 46 | 360 | 5.0 | 9.0 | 0.00 | 0.00 | 0.00 | 39 | 980.7 |
| 20260503032023 | 46 | 344 | 5.0 | 10.0 | 0.00 | 0.00 | 0.00 | 39 | 980.7 |
| 20260503031526 | 47 | 360 | 6.0 | 10.0 | 0.00 | 0.00 | 0.00 | 39 | 980.7 |
| 20260503031019 | 47 | 360 | 5.0 | 11.0 | 0.00 | 0.00 | 0.00 | 39 | 980.6 |
| 20260503030518 | 47 | 360 | 7.0 | 12.0 | 0.00 | 0.00 | 0.00 | 39 | 980.5 |
| 20260503030019 | 47 | 308 | 8.0 | 13.0 | 0.00 | 0.00 | 0.00 | 38 | 980.5 |
| 20260503025517 | 48 | 360 | 8.0 | 13.0 | 0.00 | 0.00 | 0.00 | 38 | 980.5 |
| 20260503025017 | 48 | 304 | 7.0 | 12.0 | 0.00 | 0.00 | 0.00 | 38 | 980.4 |
| 20260503024518 | 48 | 360 | 8.0 | 15.0 | 0.00 | 0.00 | 0.00 | 37 | 980.5 |
| 20260503024018 | 48 | 360 | 10.0 | 15.0 | 0.00 | 0.00 | 0.00 | 37 | 980.4 |
| 20260503023517 | 49 | 360 | 10.0 | 16.0 | 0.00 | 0.00 | 0.00 | 38 | 980.3 |
| 20260503023017 | 49 | 340 | 11.0 | 16.0 | 0.00 | 0.00 | 0.00 | 37 | 980.2 |
| 20260503022518 | 49 | 360 | 9.0 | 17.0 | 0.00 | 0.00 | 0.00 | 38 | 980.2 |
| 20260503022020 | 49 | 360 | 10.0 | 17.0 | 0.00 | 0.00 | 0.00 | 37 | 980.2 |
| 20260503021517 | 50 | 360 | 9.0 | 16.0 | 0.00 | 0.00 | 0.00 | 35 | 980.2 |
| 20260503021018 | 50 | 308 | 10.0 | 16.0 | 0.00 | 0.00 | 0.00 | 34 | 980.1 |
| 20260503020516 | 51 | 360 | 10.0 | 15.0 | 0.00 | 0.00 | 0.00 | 33 | 980.0 |
| 20260503020017 | 51 | 332 | 10.0 | 17.0 | 0.00 | 0.00 | 0.00 | 31 | 979.9 |
| 20260503015519 | 52 | 360 | 11.0 | 17.0 | 0.00 | 0.00 | 0.00 | 29 | 979.9 |
| 20260503015016 | 52 | 360 | 11.0 | 19.0 | 0.00 | 0.00 | 0.00 | 28 | 979.9 |
| 20260503014516 | 52 | 341 | 12.0 | 19.0 | 0.00 | 0.00 | 0.00 | 29 | 979.9 |
| 20260503014015 | 52 | 328 | 11.0 | 17.0 | 0.00 | 0.00 | 0.00 | 30 | 979.8 |
| 20260503013515 | 52 | 360 | 11.0 | 18.0 | 0.00 | 0.00 | 0.00 | 31 | 979.7 |
| 20260503013015 | 52 | 360 | 10.0 | 18.0 | 0.00 | 0.00 | 0.00 | 32 | 979.6 |
| 20260503012514 | 52 | 360 | 10.0 | 18.0 | 0.00 | 0.00 | 0.00 | 32 | 979.5 |
| 20260503012014 | 53 | 360 | 11.0 | 21.0 | 0.00 | 0.00 | 0.00 | 32 | 979.6 |
| 20260503011514 | 53 | 338 | 11.0 | 17.0 | 0.00 | 0.00 | 0.00 | 33 | 979.6 |
| 20260503011014 | 53 | 331 | 9.0 | 16.0 | 0.00 | 0.00 | 0.00 | 34 | 979.8 |
| 20260503010513 | 53 | 360 | 9.0 | 17.0 | 0.00 | 0.00 | 0.00 | 34 | 979.6 |
| 20260503010013 | 54 | 304 | 9.0 | 18.0 | 0.00 | 0.00 | 0.00 | 34 | 979.5 |
| 20260503005513 | 54 | 335 | 10.0 | 20.0 | 0.00 | 0.00 | 0.00 | 35 | 979.4 |
| 20260503005013 | 54 | 341 | 11.0 | 20.0 | 0.00 | 0.00 | 0.00 | 35 | 979.6 |
| 20260503004514 | 54 | 360 | 11.0 | 20.0 | 0.00 | 0.00 | 0.00 | 36 | 979.5 |
| 20260503004017 | 54 | 344 | 14.0 | 20.0 | 0.00 | 0.00 | 0.00 | 36 | 979.5 |
| 20260503003513 | 55 | 360 | 13.0 | 19.0 | 0.00 | 0.00 | 0.00 | 37 | 979.5 |
| 20260503003013 | 55 | 300 | 12.0 | 19.0 | 0.00 | 0.00 | 0.00 | 39 | 979.4 |
| 20260503002513 | 55 | 338 | 12.0 | 18.0 | 0.00 | 0.00 | 0.00 | 39 | 979.4 |
| 20260503002012 | 55 | 355 | 11.0 | 22.0 | 0.00 | 0.00 | 0.00 | 39 | 979.4 |
| 20260503001512 | 56 | 331 | 13.0 | 22.0 | 0.00 | 0.00 | 0.00 | 39 | 979.5 |
| 20260503001012 | 57 | 15 | 14.0 | 21.0 | 0.00 | 0.00 | 0.00 | 38 | 979.5 |
| 20260503000512 | 58 | 349 | 11.0 | 19.0 | 0.00 | 0.00 | 0.00 | 40 | 979.4 |
| 20260503000021 | 58 | 360 | 11.0 | 19.0 | 0.00 | 0.00 | 0.00 | 41 | 979.4 |
| 20260502235511 | 58 | 331 | 13.0 | 22.0 | 0.00 | 0.00 | 0.00 | 41 | 979.4 |
| 20260502235011 | 58 | 346 | 12.0 | 24.0 | 0.00 | 0.00 | 0.00 | 41 | 979.4 |
| 20260502234512 | 58 | 360 | 14.0 | 24.0 | 0.00 | 0.00 | 0.00 | 40 | 979.3 |
| 20260502234011 | 59 | 303 | 14.0 | 22.0 | 0.00 | 0.00 | 0.00 | 40 | 979.3 |
| 20260502233510 | 59 | 5 | 13.0 | 22.0 | 0.00 | 0.00 | 0.00 | 40 | 979.3 |
| 20260502233011 | 59 | 349 | 16.0 | 24.0 | 0.00 | 0.00 | 0.00 | 39 | 979.2 |
| 20260502232510 | 60 | 290 | 14.0 | 23.0 | 0.00 | 0.00 | 0.00 | 37 | 979.3 |
| 20260502232010 | 60 | 355 | 12.0 | 19.0 | 0.00 | 0.00 | 0.00 | 38 | 979.1 |
| 20260502231510 | 60 | 360 | 12.0 | 19.0 | 0.00 | 0.00 | 0.00 | 37 | 979.2 |
| 20260502231010 | 60 | 344 | 12.0 | 18.0 | 0.00 | 0.00 | 0.00 | 36 | 979.1 |
| 20260502230510 | 60 | 360 | 11.0 | 18.0 | 0.00 | 0.00 | 0.00 | 35 | 979.1 |
| 20260502230011 | 60 | 5 | 12.0 | 19.0 | 0.00 | 0.00 | 0.00 | 33 | 979.1 |
| 20260502225513 | 60 | 335 | 12.0 | 19.0 | 0.00 | 0.00 | 0.00 | 33 | 979.1 |
| 20260502225013 | 60 | 360 | 11.0 | 18.0 | 0.00 | 0.00 | 0.00 | 34 | 979.1 |
| 20260502224509 | 60 | 298 | 11.0 | 17.0 | 0.00 | 0.00 | 0.00 | 33 | 979.0 |
| 20260502224012 | 60 | 340 | 12.0 | 17.0 | 0.00 | 0.00 | 0.00 | 34 | 979.1 |
| 20260502223509 | 60 | 342 | 9.0 | 18.0 | 0.00 | 0.00 | 0.00 | 35 | 979.1 |
| 20260502223024 | 60 | 348 | 12.0 | 20.0 | 0.00 | 0.00 | 0.00 | 34 | 979.1 |
| 20260502222509 | 60 | 347 | 10.0 | 16.0 | 0.00 | 0.00 | 0.00 | 34 | 978.9 |
| 20260502222009 | 60 | 347 | 11.0 | 18.0 | 0.00 | 0.00 | 0.00 | 35 | 979.1 |
| 20260502221508 | 60 | 331 | 8.0 | 18.0 | 0.00 | 0.00 | 0.00 | 35 | 978.9 |
| 20260502221008 | 61 | 336 | 11.0 | 17.0 | 0.00 | 0.00 | 0.00 | 33 | 979.0 |
| 20260502220507 | 61 | 348 | 10.0 | 15.0 | 0.00 | 0.00 | 0.00 | 35 | 978.8 |
| 20260502220007 | 61 | 360 | 10.0 | 15.0 | 0.00 | 0.00 | 0.00 | 33 | 978.9 |
| 20260502215505 | 60 | 5 | 7.0 | 16.0 | 0.00 | 0.00 | 0.00 | 36 | 978.9 |
| 20260502215008 | 60 | 343 | 10.0 | 16.0 | 0.00 | 0.00 | 0.00 | 35 | 978.8 |
| 20260502214505 | 60 | 346 | 11.0 | 16.0 | 0.00 | 0.00 | 0.00 | 36 | 979.0 |
| 20260502214008 | 59 | 360 | 11.0 | 16.0 | 0.00 | 0.00 | 0.00 | 36 | 978.9 |
| 20260502213503 | 59 | 13 | 9.0 | 15.0 | 0.00 | 0.00 | 0.00 | 37 | 978.9 |
| 20260502213003 | 59 | 298 | 9.0 | 16.0 | 0.00 | 0.00 | 0.00 | 37 | 978.9 |
| 20260502212503 | 59 | 360 | 12.0 | 16.0 | 0.00 | 0.00 | 0.00 | 36 | 978.9 |
| 20260502212002 | 59 | 346 | 10.0 | 15.0 | 0.00 | 0.00 | 0.00 | 36 | 978.9 |
| 20260502211503 | 59 | 337 | 10.0 | 17.0 | 0.00 | 0.00 | 0.00 | 38 | 978.9 |
| 20260502211000 | 59 | 350 | 10.0 | 18.0 | 0.00 | 0.00 | 0.00 | 37 | 979.0 |
| 20260502210600 | 59 | 360 | 9.0 | 18.0 | 0.00 | 0.00 | 0.00 | 38 | 978.9 |